When you browse on this site, cookies collect data to enhance your experience and personalize the content and advertising you see.
Visit our Privacy Policy to learn more. By continuing to use the site, you agree to this use of cookies and data.
  • Em Portugal
  • Lista de países
  • Para 7 dias
  • Temperatura da água
  • Mapas de satélite
  • Mapa do tempo
  • Widgets de tempo
  • user-avatar
    Iniciar Sessão

    Previsão horária em Dabek

    Hoje, 22 Março, Sexta-feira

    Tempo Temperatura Precipitação Vento Pressão Humidade
    00:00 +8°C° 0 mm 6 m/s 758 mmHg 87%
    01:00 +8°C° 0 mm 5 m/s 758 mmHg 88%
    02:00 +8°C° 0 mm 5 m/s 758 mmHg 88%
    03:00 +8°C° 0 mm 5 m/s 758 mmHg 88%
    04:00 +8°C° 0 mm 5 m/s 758 mmHg 88%
    05:00 +8°C° 0 mm 5 m/s 758 mmHg 88%
    06:00 +8°C° 0 mm 5 m/s 759 mmHg 87%
    07:00 +8°C° 0 mm 4 m/s 759 mmHg 87%
    08:00 +8°C° 0 mm 4 m/s 760 mmHg 82%
    09:00 +10°C° 0 mm 4 m/s 760 mmHg 78%
    10:00 +9°C° 0 mm 5 m/s 760 mmHg 73%
    11:00 +11°C° 0 mm 4 m/s 761 mmHg 68%
    12:00 +11°C° 0 mm 4 m/s 761 mmHg 62%
    13:00 +12°C° 0 mm 3 m/s 761 mmHg 56%
    14:00 +12°C° 0 mm 3 m/s 761 mmHg 53%
    15:00 +12°C° 0 mm 3 m/s 761 mmHg 49%
    16:00 +13°C° 0 mm 2 m/s 761 mmHg 45%
    17:00 +12°C° 0 mm 2 m/s 761 mmHg 48%
    18:00 +9°C° 0 mm 2 m/s 760 mmHg 51%
    19:00 +7°C° 0 mm 2 m/s 760 mmHg 54%
    20:00 +6°C° 0 mm 2 m/s 760 mmHg 54%
    21:00 +6°C° 0 mm 2 m/s 760 mmHg 55%
    22:00 +5°C° 0 mm 2 m/s 760 mmHg 55%
    23:00 +4°C° 0 mm 2 m/s 760 mmHg 56%

    Amanhã, 23 Março, Sábado

    Tempo Temperatura Precipitação Vento Pressão Humidade
    00:00 +4°C° 0 mm 2 m/s 760 mmHg 57%
    01:00 +4°C° 0 mm 2 m/s 760 mmHg 58%
    02:00 +3°C° 0 mm 2 m/s 760 mmHg 59%
    03:00 +3°C° 0 mm 2 m/s 759 mmHg 60%
    04:00 +3°C° 0 mm 2 m/s 759 mmHg 62%
    05:00 +2°C° 0 mm 3 m/s 759 mmHg 64%
    06:00 +3°C° 0 mm 3 m/s 759 mmHg 66%
    07:00 +3°C° 0 mm 3 m/s 758 mmHg 69%
    08:00 +5°C° 0 mm 3 m/s 758 mmHg 67%
    09:00 +8°C° 0 mm 3 m/s 758 mmHg 66%
    10:00 +10°C° 0 mm 4 m/s 758 mmHg 65%
    11:00 +11°C° 0 mm 4 m/s 757 mmHg 63%
    12:00 +12°C° 0 mm 4 m/s 757 mmHg 61%
    13:00 +14°C° 0 mm 4 m/s 756 mmHg 60%
    14:00 +14°C° 0 mm 4 m/s 756 mmHg 61%
    15:00 +14°C° 0 mm 4 m/s 755 mmHg 62%
    16:00 +15°C° 0 mm 4 m/s 755 mmHg 63%
    17:00 +13°C° 0 mm 4 m/s 754 mmHg 69%
    18:00 +12°C° 0 mm 3 m/s 754 mmHg 76%
    19:00 +11°C° 0 mm 3 m/s 754 mmHg 82%
    20:00 +10°C° 0.1 mm 3 m/s 754 mmHg 84%
    21:00 +8°C° 0.1 mm 4 m/s 755 mmHg 86%
    22:00 +8°C° 0.1 mm 5 m/s 755 mmHg 89%
    23:00 +7°C° 0 mm 5 m/s 755 mmHg 84%

    Depois de amanhã, 24 Março, Domingo

    Tempo Temperatura Precipitação Vento Pressão Humidade
    00:00 +6°C° 0 mm 5 m/s 755 mmHg 79%
    01:00 +5°C° 0 mm 5 m/s 755 mmHg 74%
    02:00 +4°C° 0 mm 4 m/s 755 mmHg 74%
    03:00 +3°C° 0 mm 4 m/s 755 mmHg 74%
    04:00 +2°C° 0 mm 3 m/s 755 mmHg 75%
    05:00 +1°C° 0 mm 4 m/s 756 mmHg 74%
    06:00 +1°C° 0 mm 4 m/s 756 mmHg 74%
    07:00 +1°C° 0 mm 4 m/s 756 mmHg 73%
    08:00 +3°C° 0 mm 4 m/s 756 mmHg 67%
    09:00 +5°C° 0 mm 4 m/s 756 mmHg 62%
    10:00 +7°C° 0 mm 3 m/s 756 mmHg 56%
    11:00 +6°C° 0 mm 4 m/s 756 mmHg 52%
    12:00 +7°C° 0 mm 4 m/s 756 mmHg 48%
    13:00 +8°C° 0 mm 4 m/s 755 mmHg 44%
    14:00 +8°C° 0 mm 4 m/s 755 mmHg 45%
    15:00 +7°C° 0 mm 4 m/s 754 mmHg 46%
    16:00 +7°C° 0 mm 4 m/s 754 mmHg 47%
    17:00 +6°C° 0 mm 4 m/s 754 mmHg 53%
    18:00 +5°C° 0 mm 3 m/s 754 mmHg 58%
    19:00 +3°C° 0 mm 3 m/s 754 mmHg 63%
    20:00 +3°C° 0 mm 3 m/s 754 mmHg 65%
    21:00 +3°C° 0 mm 3 m/s 753 mmHg 68%
    22:00 +2°C° 0 mm 3 m/s 753 mmHg 70%
    23:00 +2°C° 0 mm 3 m/s 753 mmHg 72%

    25 Março, Segunda-feira

    Tempo Temperatura Precipitação Vento Pressão Humidade
    00:00 +1°C° 0 mm 3 m/s 752 mmHg 73%
    01:00 +1°C° 0 mm 3 m/s 752 mmHg 74%
    02:00 0°C° 0 mm 4 m/s 751 mmHg 76%
    03:00 -1°C° 0 mm 4 m/s 751 mmHg 77%
    04:00 -1°C° 0 mm 4 m/s 750 mmHg 79%
    05:00 0°C° 0 mm 5 m/s 750 mmHg 78%
    06:00 0°C° 0 mm 5 m/s 749 mmHg 78%
    07:00 -1°C° 0 mm 6 m/s 748 mmHg 78%
    08:00 0°C° 0.3 mm 7 m/s 748 mmHg 78%
    09:00 0°C° 0.3 mm 7 m/s 747 mmHg 78%
    10:00 +1°C° 0.3 mm 8 m/s 747 mmHg 78%
    11:00 +1°C° 0.3 mm 8 m/s 746 mmHg 75%
    12:00 +2°C° 0.3 mm 8 m/s 746 mmHg 72%
    13:00 +2°C° 0.3 mm 8 m/s 745 mmHg 70%
    14:00 +3°C° 0.3 mm 7 m/s 745 mmHg 68%
    15:00 +3°C° 0.3 mm 6 m/s 745 mmHg 67%
    16:00 +3°C° 0.3 mm 6 m/s 744 mmHg 65%
    17:00 +2°C° 0.2 mm 5 m/s 745 mmHg 71%
    18:00 +1°C° 0.2 mm 4 m/s 745 mmHg 76%
    19:00 +2°C° 0.2 mm 3 m/s 746 mmHg 82%
    20:00 0°C° 0.3 mm 4 m/s 747 mmHg 84%
    21:00 0°C° 0.3 mm 5 m/s 747 mmHg 85%
    22:00 -2°C° 0.3 mm 6 m/s 748 mmHg 87%
    23:00 -1°C° 0 mm 5 m/s 749 mmHg 89%

    26 Março, Terça-feira

    Tempo Temperatura Precipitação Vento Pressão Humidade
    00:00 -1°C° 0 mm 5 m/s 750 mmHg 91%
    01:00 -1°C° 0 mm 5 m/s 751 mmHg 92%
    02:00 -2°C° 0 mm 6 m/s 752 mmHg 89%
    03:00 -2°C° 0 mm 7 m/s 753 mmHg 86%
    04:00 -2°C° 0 mm 8 m/s 754 mmHg 83%
    05:00 -2°C° 0 mm 7 m/s 755 mmHg 81%
    06:00 -3°C° 0 mm 7 m/s 756 mmHg 79%
    07:00 -3°C° 0 mm 6 m/s 757 mmHg 77%
    08:00 -2°C° 0 mm 6 m/s 758 mmHg 71%
    09:00 +1°C° 0 mm 6 m/s 759 mmHg 66%
    10:00 +2°C° 0 mm 5 m/s 759 mmHg 60%
    11:00 +3°C° 0 mm 5 m/s 759 mmHg 59%
    12:00 +5°C° 0 mm 5 m/s 759 mmHg 58%
    13:00 +6°C° 0 mm 5 m/s 759 mmHg 57%
    14:00 +6°C° 0 mm 5 m/s 759 mmHg 54%
    15:00 +6°C° 0 mm 5 m/s 759 mmHg 51%
    16:00 +6°C° 0 mm 5 m/s 759 mmHg 48%
    17:00 +5°C° 0 mm 4 m/s 758 mmHg 52%
    18:00 +4°C° 0 mm 4 m/s 758 mmHg 56%
    19:00 +3°C° 0 mm 4 m/s 758 mmHg 60%
    20:00 +3°C° 0 mm 4 m/s 758 mmHg 60%
    21:00 +3°C° 0 mm 4 m/s 757 mmHg 60%
    22:00 +1°C° 0 mm 4 m/s 757 mmHg 61%
    23:00 +1°C° 0 mm 5 m/s 757 mmHg 61%

    27 Março, Quarta-feira

    Tempo Temperatura Precipitação Vento Pressão Humidade
    00:00 +1°C° 0 mm 5 m/s 756 mmHg 62%
    01:00 +1°C° 0 mm 5 m/s 756 mmHg 63%
    02:00 +1°C° 0.2 mm 5 m/s 756 mmHg 65%
    03:00 +1°C° 0.2 mm 5 m/s 755 mmHg 68%
    04:00 +1°C° 0.2 mm 6 m/s 755 mmHg 71%
    05:00 +1°C° 0.2 mm 6 m/s 755 mmHg 73%
    06:00 +2°C° 0.2 mm 6 m/s 755 mmHg 75%
    07:00 +2°C° 0.2 mm 6 m/s 755 mmHg 77%
    08:00 +2°C° 0 mm 6 m/s 755 mmHg 78%
    09:00 +3°C° 0 mm 6 m/s 755 mmHg 79%
    10:00 +4°C° 0 mm 6 m/s 755 mmHg 79%
    11:00 +4°C° 0 mm 6 m/s 755 mmHg 80%
    12:00 +6°C° 0 mm 5 m/s 755 mmHg 80%
    13:00 +6°C° 0 mm 5 m/s 755 mmHg 81%
    14:00 +6°C° 0 mm 5 m/s 755 mmHg 81%
    15:00 +6°C° 0 mm 5 m/s 755 mmHg 82%
    16:00 +7°C° 0 mm 5 m/s 756 mmHg 82%
    17:00 +6°C° 0 mm 4 m/s 756 mmHg 86%
    18:00 +5°C° 0 mm 4 m/s 756 mmHg 90%
    19:00 +4°C° 0 mm 3 m/s 757 mmHg 93%
    20:00 +4°C° 0 mm 3 m/s 757 mmHg 94%
    21:00 +3°C° 0 mm 3 m/s 758 mmHg 95%
    22:00 +3°C° 0 mm 3 m/s 758 mmHg 96%
    23:00 +2°C° 0 mm 3 m/s 759 mmHg 95%
    Mostrar mais